| time (UTC) | temp F | wind direction | speed knots | gust knots | rain 1hr in | rain 24hr in | rain mn in | humidity % | barometer mb |
| 20260504205525 | 77 | 164 | 1.7 | 1.7 | 0.00 | 0.00 | 0.00 | 94 | 1014.2 |
| 20260504205024 | 77 | 172 | 1.7 | 1.7 | 0.00 | 0.00 | 0.00 | 94 | 1014.2 |
| 20260504204524 | 77 | 193 | 1.7 | 1.7 | 0.00 | 0.00 | 0.00 | 94 | 1014.2 |
| 20260504204024 | 77 | 199 | 0.9 | 0.9 | 0.00 | 0.00 | 0.00 | 94 | 1014.2 |
| 20260504203524 | 77 | 196 | 0.9 | 0.9 | 0.00 | 0.00 | 0.00 | 94 | 1014.2 |
| 20260504203024 | 77 | 194 | 1.7 | 1.7 | 0.00 | 0.00 | 0.00 | 94 | 1014.6 |
| 20260504202525 | 77 | 188 | 1.7 | 1.7 | 0.00 | 0.00 | 0.00 | 94 | 1014.6 |
| 20260504202025 | 77 | 225 | 0.9 | 1.7 | 0.00 | 0.00 | 0.00 | 94 | 1014.6 |
| 20260504201528 | 77 | 216 | 2.6 | 2.6 | 0.00 | 0.00 | 0.00 | 94 | 1014.6 |
| 20260504201024 | 77 | 219 | 2.6 | 2.6 | 0.00 | 0.00 | 0.00 | 94 | 1014.6 |
| 20260504200525 | 77 | 245 | 1.7 | 1.7 | 0.00 | 0.00 | 0.00 | 94 | 1014.6 |
| 20260504200024 | 77 | 215 | 2.6 | 4.3 | 0.00 | 0.00 | 0.00 | 94 | 1014.6 |
| 20260504195525 | 77 | 214 | 1.7 | 1.7 | 0.00 | 0.00 | 0.00 | 94 | 1014.9 |
| 20260504195025 | 77 | 225 | 1.7 | 1.7 | 0.00 | 0.00 | 0.00 | 94 | 1014.9 |
| 20260504194526 | 77 | 199 | 2.6 | 4.3 | 0.00 | 0.00 | 0.00 | 94 | 1014.9 |
| 20260504194025 | 77 | 195 | 1.7 | 1.7 | 0.00 | 0.00 | 0.00 | 94 | 1014.9 |
| 20260504193525 | 78 | 193 | 0.9 | 1.7 | 0.00 | 0.00 | 0.00 | 93 | 1014.9 |
| 20260504193024 | 78 | 221 | 0.9 | 0.9 | 0.00 | 0.00 | 0.00 | 93 | 1014.9 |
| 20260504192526 | 78 | 189 | 1.7 | 2.6 | 0.00 | 0.00 | 0.00 | 93 | 1015.2 |
| 20260504192025 | 78 | 196 | 0.9 | 0.9 | 0.00 | 0.00 | 0.00 | 93 | 1014.6 |
| 20260504191525 | 78 | 194 | 2.6 | 2.6 | 0.00 | 0.00 | 0.00 | 93 | 1014.9 |
| 20260504191025 | 78 | 199 | 1.7 | 1.7 | 0.00 | 0.00 | 0.00 | 93 | 1014.9 |
| 20260504190525 | 78 | 213 | 1.7 | 2.6 | 0.00 | 0.00 | 0.00 | 93 | 1014.6 |
| 20260504190025 | 77 | 203 | 0.0 | 0.0 | 0.00 | 0.00 | 0.00 | 93 | 1014.9 |
| 20260504185526 | 77 | 200 | 0.0 | 0.0 | 0.00 | 0.00 | 0.00 | 94 | 1014.9 |
| 20260504185025 | 77 | 193 | 0.0 | 0.0 | 0.00 | 0.00 | 0.00 | 94 | 1014.9 |
| 20260504184524 | 77 | 214 | 0.0 | 0.0 | 0.00 | 0.00 | 0.00 | 93 | 1014.6 |
| 20260504184026 | 77 | 206 | 0.0 | 0.0 | 0.00 | 0.00 | 0.00 | 94 | 1014.9 |
| 20260504183524 | 77 | 221 | 0.0 | 0.0 | 0.00 | 0.00 | 0.00 | 94 | 1014.6 |
| 20260504183024 | 77 | 204 | 0.0 | 0.0 | 0.00 | 0.00 | 0.00 | 94 | 1014.9 |
| 20260504182525 | 77 | 210 | 0.0 | 0.0 | 0.00 | 0.00 | 0.00 | 94 | 1014.9 |
| 20260504182024 | 77 | 215 | 0.0 | 0.0 | 0.00 | 0.00 | 0.00 | 94 | 1014.9 |
| 20260504181526 | 77 | 218 | 0.0 | 0.9 | 0.00 | 0.00 | 0.00 | 94 | 1015.2 |
| 20260504181024 | 77 | 217 | 0.0 | 0.0 | 0.00 | 0.00 | 0.00 | 94 | 1015.2 |
| 20260504180525 | 77 | 210 | 0.0 | 0.0 | 0.00 | 0.00 | 0.00 | 94 | 1015.2 |
| 20260504180025 | 77 | 217 | 0.0 | 0.0 | 0.00 | 0.00 | 0.00 | 94 | 1015.2 |
| 20260504175524 | 77 | 223 | 0.0 | 0.0 | 0.00 | 0.00 | 0.00 | 94 | 1015.2 |
| 20260504175025 | 77 | 212 | 0.0 | 0.0 | 0.00 | 0.00 | 0.00 | 94 | 1015.2 |
| 20260504174525 | 77 | 226 | 0.0 | 0.0 | 0.00 | 0.00 | 0.00 | 94 | 1015.6 |
| 20260504174024 | 77 | 242 | 0.0 | 0.0 | 0.00 | 0.00 | 0.00 | 94 | 1015.6 |
| 20260504173530 | 77 | 331 | 0.0 | 0.0 | 0.00 | 0.00 | 0.00 | 94 | 1015.6 |
| 20260504173025 | 77 | 257 | 0.0 | 0.9 | 0.00 | 0.00 | 0.00 | 94 | 1015.6 |
| 20260504172524 | 77 | 242 | 0.0 | 0.0 | 0.00 | 0.00 | 0.00 | 94 | 1015.6 |
| 20260504172024 | 77 | 241 | 0.0 | 0.9 | 0.00 | 0.00 | 0.00 | 94 | 1015.6 |
| 20260504171524 | 77 | 232 | 0.0 | 0.0 | 0.00 | 0.00 | 0.00 | 93 | 1015.6 |
| 20260504171024 | 77 | 213 | 0.0 | 0.0 | 0.00 | 0.00 | 0.00 | 94 | 1015.6 |
| 20260504170525 | 77 | 206 | 0.0 | 0.0 | 0.00 | 0.00 | 0.00 | 94 | 1015.6 |
| 20260504151026 | 77 | 189 | 0.9 | 0.9 | 0.00 | 0.00 | 3.76 | 93 | 1015.6 |
| 20260504150524 | 77 | 217 | 1.7 | 1.7 | 0.00 | 0.00 | 3.76 | 93 | 1015.2 |
| 20260504141025 | 76 | 191 | 0.9 | 0.9 | 0.00 | 0.00 | 3.76 | 97 | 1015.9 |
| 20260504140527 | 76 | 222 | 3.5 | 4.3 | 0.00 | 0.00 | 3.76 | 97 | 1015.6 |
| 20260504130525 | 77 | 139 | 0.9 | 0.9 | 0.05 | 0.00 | 3.75 | 97 | 1016.3 |
| 20260504110525 | 75 | 162 | 0.9 | 0.9 | 0.12 | 0.00 | 3.69 | 97 | 1016.3 |
| 20260504100527 | 72 | 259 | 4.3 | 5.2 | 3.12 | 0.00 | 3.30 | 96 | 1015.9 |
| 20260504081524 | 84 | 19 | 4.3 | 6.1 | 0.00 | 0.00 | 0.01 | 80 | 1013.9 |
| 20260504081025 | 84 | 0 | 4.3 | 5.2 | 0.00 | 0.00 | 0.01 | 79 | 1013.9 |
| 20260504080524 | 84 | 337 | 4.3 | 6.1 | 0.00 | 0.00 | 0.01 | 81 | 1013.9 |
| 20260504050524 | 86 | 81 | 6.1 | 7.8 | 0.00 | 0.00 | 0.00 | 76 | 1015.2 |
| 20260504050025 | 87 | 0 | 6.1 | 9.6 | 0.00 | 0.00 | 0.00 | 77 | 1015.2 |
| 20260504045524 | 87 | 356 | 7.0 | 7.8 | 0.00 | 0.00 | 0.00 | 76 | 1014.9 |
| 20260504045026 | 87 | 4 | 4.3 | 6.1 | 0.00 | 0.00 | 0.00 | 75 | 1015.2 |
| 20260504044524 | 88 | 334 | 4.3 | 7.0 | 0.00 | 0.00 | 0.00 | 73 | 1015.2 |
| 20260504044024 | 89 | 347 | 5.2 | 7.0 | 0.00 | 0.00 | 0.00 | 71 | 1015.2 |
| 20260504043525 | 90 | 15 | 6.1 | 7.8 | 0.00 | 0.00 | 0.00 | 65 | 1014.9 |
| 20260504043024 | 90 | 330 | 0.9 | 0.9 | 0.00 | 0.00 | 0.00 | 61 | 1015.2 |
| 20260504042524 | 90 | 212 | 2.6 | 2.6 | 0.00 | 0.00 | 0.00 | 61 | 1015.2 |
| 20260504042026 | 91 | 223 | 3.5 | 4.3 | 0.00 | 0.00 | 0.00 | 61 | 1015.2 |
| 20260504041524 | 93 | 235 | 0.0 | 0.9 | 0.00 | 0.00 | 0.00 | 58 | 1015.6 |
| 20260504041024 | 91 | 225 | 0.0 | 0.0 | 0.00 | 0.00 | 0.00 | 61 | 1015.2 |
| 20260504040524 | 91 | 281 | 1.7 | 1.7 | 0.00 | 0.00 | 0.00 | 60 | 1015.6 |
| 20260504040024 | 91 | 179 | 2.6 | 2.6 | 0.00 | 0.00 | 0.00 | 61 | 1015.6 |
| 20260504035525 | 91 | 197 | 2.6 | 2.6 | 0.00 | 0.00 | 0.00 | 60 | 1015.6 |
| 20260504035025 | 90 | 192 | 2.6 | 2.6 | 0.00 | 0.00 | 0.00 | 61 | 1015.6 |
| 20260504034525 | 91 | 214 | 4.3 | 6.1 | 0.00 | 0.00 | 0.00 | 60 | 1015.9 |
| 20260504034024 | 90 | 264 | 0.0 | 0.0 | 0.00 | 0.00 | 0.00 | 62 | 1015.9 |
| 20260504033525 | 90 | 187 | 3.5 | 4.3 | 0.00 | 0.00 | 0.00 | 63 | 1015.9 |
| 20260504033025 | 91 | 202 | 0.9 | 0.9 | 0.00 | 0.00 | 0.00 | 62 | 1015.9 |
| 20260504032524 | 92 | 104 | 2.6 | 4.3 | 0.00 | 0.00 | 0.00 | 61 | 1016.3 |
| 20260504032024 | 91 | 19 | 0.9 | 1.7 | 0.00 | 0.00 | 0.00 | 61 | 1016.3 |
| 20260504031524 | 90 | 275 | 0.9 | 0.9 | 0.00 | 0.00 | 0.00 | 63 | 1016.3 |
| 20260504031024 | 91 | 110 | 6.1 | 7.0 | 0.00 | 0.00 | 0.00 | 61 | 1016.3 |
| 20260504030525 | 90 | 153 | 0.9 | 0.9 | 0.00 | 0.00 | 0.00 | 64 | 1016.3 |
| 20260504030024 | 90 | 163 | 0.9 | 1.7 | 0.00 | 0.00 | 0.00 | 64 | 1016.3 |
| 20260504025525 | 90 | 124 | 1.7 | 2.6 | 0.00 | 0.00 | 0.00 | 65 | 1016.6 |
| 20260504025027 | 89 | 140 | 2.6 | 2.6 | 0.00 | 0.00 | 0.00 | 66 | 1016.3 |
| 20260504024524 | 88 | 200 | 0.0 | 0.0 | 0.00 | 0.00 | 0.00 | 68 | 1016.6 |
| 20260504024025 | 88 | 123 | 2.6 | 2.6 | 0.00 | 0.00 | 0.00 | 68 | 1016.6 |
| 20260504023525 | 88 | 169 | 1.7 | 1.7 | 0.00 | 0.00 | 0.00 | 68 | 1016.6 |
| 20260504023024 | 88 | 143 | 1.7 | 1.7 | 0.00 | 0.00 | 0.00 | 68 | 1016.6 |
| 20260504022524 | 87 | 181 | 3.5 | 4.3 | 0.00 | 0.00 | 0.00 | 69 | 1016.6 |
| 20260504022024 | 87 | 207 | 2.6 | 2.6 | 0.00 | 0.00 | 0.00 | 70 | 1016.6 |
| 20260504021524 | 87 | 215 | 3.5 | 4.3 | 0.00 | 0.00 | 0.00 | 70 | 1016.6 |
| 20260504021025 | 87 | 189 | 2.6 | 2.6 | 0.00 | 0.00 | 0.00 | 70 | 1016.6 |
| 20260504020525 | 87 | 154 | 3.5 | 4.3 | 0.00 | 0.00 | 0.00 | 69 | 1016.6 |
| 20260504020025 | 86 | 169 | 1.7 | 1.7 | 0.00 | 0.00 | 0.00 | 71 | 1016.6 |
| 20260504015525 | 87 | 183 | 4.3 | 5.2 | 0.00 | 0.00 | 0.00 | 71 | 1016.6 |
| 20260504015024 | 86 | 280 | 0.9 | 0.9 | 0.00 | 0.00 | 0.00 | 72 | 1016.6 |
| 20260504014524 | 86 | 221 | 2.6 | 2.6 | 0.00 | 0.00 | 0.00 | 71 | 1016.6 |
| 20260504014024 | 85 | 188 | 0.9 | 0.9 | 0.00 | 0.00 | 0.00 | 74 | 1016.6 |
| 20260504013524 | 85 | 158 | 3.5 | 4.3 | 0.00 | 0.00 | 0.00 | 74 | 1016.6 |
| 20260504013025 | 84 | 175 | 2.6 | 2.6 | 0.00 | 0.00 | 0.00 | 76 | 1016.6 |
| 20260504012524 | 85 | 200 | 2.6 | 2.6 | 0.00 | 0.00 | 0.00 | 75 | 1016.6 |
| 20260504012025 | 85 | 149 | 1.7 | 1.7 | 0.00 | 0.00 | 0.00 | 74 | 1016.3 |
| 20260504011524 | 86 | 228 | 0.9 | 0.9 | 0.00 | 0.00 | 0.00 | 74 | 1016.3 |
| 20260504011024 | 86 | 192 | 1.7 | 1.7 | 0.00 | 0.00 | 0.00 | 75 | 1016.6 |
| 20260504010524 | 84 | 333 | 0.9 | 1.7 | 0.00 | 0.00 | 0.00 | 77 | 1016.6 |
| 20260504010025 | 83 | 213 | 0.9 | 0.9 | 0.00 | 0.00 | 0.00 | 80 | 1016.6 |
| 20260504005525 | 83 | 224 | 1.7 | 1.7 | 0.00 | 0.00 | 0.00 | 80 | 1016.3 |
| 20260504005024 | 82 | 243 | 3.5 | 4.3 | 0.00 | 0.00 | 0.00 | 80 | 1016.3 |
| 20260504004524 | 82 | 224 | 2.6 | 2.6 | 0.00 | 0.00 | 0.00 | 81 | 1016.3 |
| 20260504004028 | 82 | 220 | 0.9 | 0.9 | 0.00 | 0.00 | 0.00 | 82 | 1016.3 |
| 20260504003524 | 82 | 202 | 3.5 | 4.3 | 0.00 | 0.00 | 0.00 | 81 | 1016.3 |
| 20260504003024 | 81 | 265 | 1.7 | 1.7 | 0.00 | 0.00 | 0.00 | 82 | 1015.9 |
| 20260504002524 | 81 | 231 | 2.6 | 2.6 | 0.00 | 0.00 | 0.00 | 83 | 1015.9 |
| 20260504002024 | 81 | 202 | 2.6 | 2.6 | 0.00 | 0.00 | 0.00 | 84 | 1015.9 |
| 20260504001524 | 81 | 200 | 2.6 | 4.3 | 0.00 | 0.00 | 0.00 | 83 | 1015.9 |
| 20260504001024 | 80 | 201 | 1.7 | 1.7 | 0.00 | 0.00 | 0.00 | 85 | 1015.6 |
| 20260504000525 | 80 | 240 | 2.6 | 2.6 | 0.00 | 0.00 | 0.00 | 85 | 1015.9 |
| 20260504000025 | 80 | 222 | 2.6 | 2.6 | 0.00 | 0.00 | 0.00 | 85 | 1015.9 |
| 20260503235525 | 80 | 247 | 1.7 | 1.7 | 0.00 | 0.00 | 0.00 | 85 | 1015.6 |
| 20260503235024 | 80 | 238 | 0.9 | 1.7 | 0.00 | 0.00 | 0.00 | 85 | 1015.6 |
| 20260503234524 | 80 | 216 | 1.7 | 1.7 | 0.00 | 0.00 | 0.00 | 85 | 1015.9 |
| 20260503234024 | 80 | 213 | 0.9 | 0.9 | 0.00 | 0.00 | 0.00 | 85 | 1016.3 |
| 20260503233524 | 79 | 211 | 0.0 | 0.0 | 0.00 | 0.00 | 0.00 | 85 | 1015.9 |
| 20260503233024 | 79 | 209 | 2.6 | 2.6 | 0.00 | 0.00 | 0.00 | 85 | 1015.9 |
| 20260503232524 | 79 | 212 | 0.0 | 0.0 | 0.00 | 0.00 | 0.00 | 86 | 1015.9 |
| 20260503232024 | 79 | 253 | 0.9 | 0.9 | 0.00 | 0.00 | 0.00 | 86 | 1015.9 |
| 20260503231524 | 79 | 231 | 1.7 | 1.7 | 0.00 | 0.00 | 0.00 | 87 | 1015.6 |
| 20260503231025 | 79 | 215 | 0.0 | 0.0 | 0.00 | 0.00 | 0.00 | 88 | 1015.6 |
| 20260503230524 | 79 | 237 | 0.9 | 0.9 | 0.00 | 0.00 | 0.00 | 88 | 1015.2 |
| 20260503230026 | 79 | 230 | 0.9 | 1.7 | 0.00 | 0.00 | 0.00 | 88 | 1015.2 |
| 20260503225524 | 79 | 234 | 1.7 | 1.7 | 0.00 | 0.00 | 0.00 | 88 | 1014.9 |
| 20260503225024 | 79 | 224 | 2.6 | 2.6 | 0.00 | 0.00 | 0.00 | 89 | 1014.9 |
| 20260503224524 | 79 | 184 | 1.7 | 1.7 | 0.00 | 0.00 | 0.00 | 89 | 1014.9 |
| 20260503224034 | 79 | 213 | 0.9 | 1.7 | 0.00 | 0.00 | 0.00 | 89 | 1014.9 |
| 20260503223524 | 78 | 215 | 0.9 | 0.9 | 0.00 | 0.00 | 0.00 | 89 | 1014.9 |
| 20260503223024 | 78 | 205 | 0.0 | 0.0 | 0.00 | 0.00 | 0.00 | 89 | 1014.9 |
| 20260503222524 | 79 | 207 | 0.0 | 0.9 | 0.00 | 0.00 | 0.00 | 89 | 1014.9 |
| 20260503222025 | 79 | 219 | 0.0 | 0.0 | 0.00 | 0.00 | 0.00 | 89 | 1014.9 |
| 20260503221524 | 79 | 212 | 0.0 | 0.0 | 0.00 | 0.00 | 0.00 | 88 | 1014.9 |
| 20260503221025 | 79 | 176 | 0.0 | 0.9 | 0.00 | 0.00 | 0.00 | 88 | 1014.9 |
| 20260503220524 | 79 | 208 | 0.9 | 0.9 | 0.00 | 0.00 | 0.00 | 88 | 1014.9 |
| 20260503220024 | 78 | 213 | 0.9 | 0.9 | 0.00 | 0.00 | 0.00 | 89 | 1014.9 |
| 20260503215524 | 78 | 245 | 0.9 | 0.9 | 0.00 | 0.00 | 0.00 | 89 | 1014.6 |
| 20260503215024 | 78 | 226 | 0.0 | 0.9 | 0.00 | 0.00 | 0.00 | 89 | 1014.6 |
| 20260503214525 | 79 | 209 | 0.0 | 0.0 | 0.00 | 0.00 | 0.00 | 88 | 1014.9 |
| 20260503214024 | 79 | 219 | 0.0 | 0.9 | 0.00 | 0.00 | 0.00 | 88 | 1014.6 |
| 20260503213524 | 79 | 218 | 0.0 | 0.0 | 0.00 | 0.00 | 0.00 | 88 | 1014.6 |
| 20260503213024 | 79 | 196 | 0.9 | 0.9 | 0.00 | 0.00 | 0.00 | 88 | 1014.6 |
| 20260503212113 | 79 | 199 | 1.7 | 1.7 | 0.00 | 0.00 | 0.00 | 88 | 1014.6 |
| 20260503211524 | 79 | 228 | 2.6 | 2.6 | 0.00 | 0.00 | 0.00 | 88 | 1014.9 |
| 20260503211024 | 79 | 200 | 2.6 | 2.6 | 0.00 | 0.00 | 0.00 | 88 | 1014.6 |
| 20260503210525 | 79 | 254 | 1.7 | 1.7 | 0.00 | 0.00 | 0.00 | 88 | 1014.9 |
| 20260503210025 | 79 | 193 | 1.7 | 1.7 | 0.00 | 0.00 | 0.00 | 88 | 1014.9 |